GFSCGP_sfc_temp_000.txt.gz
Temp
58 53 47 48 52 54 52 49 46 46 52 49 44 44 47 49 49 48 48 49 50 52 53 55 55 56 57 56 57 58 58 58 57 54 54 55 54 55 54 53 54 54 54 53
54 48 53 56 55 54 52 47 44 48 52 49 47 45 47 50 48 48 49 49 51 52 53 55 55 55 55 54 56 55 56 56 57 55 53 55 54 53 53 53 51 51 51 51
50 52 58 55 53 52 49 47 46 46 51 50 47 44 46 51 51 52 51 51 52 52 52 54 54 52 53 54 54 56 55 56 55 55 54 52 52 51 50 49 48 48 49 49
52 55 55 53 52 51 46 51 50 47 45 40 45 33 42 45 46 49 49 49 50 52 54 54 53 54 53 52 53 55 56 55 55 54 54 53 50 48 46 46 46 47 48 49
49 51 52 52 50 53 49 54 50 47 44 42 42 37 38 45 44 47 48 50 49 49 52 55 54 54 52 54 53 52 54 55 53 52 51 48 46 45 45 45 46 47 47 48
51 55 54 51 54 54 55 51 48 44 42 33 40 38 36 40 45 47 49 51 51 51 50 52 55 56 54 52 51 51 51 49 49 49 48 47 46 45 46 46 46 46 46 45
51 51 53 54 50 52 50 45 34 34 29 30 42 39 41 48 49 51 50 50 50 48 48 50 53 53 49 48 49 50 48 47 48 48 48 47 48 47 47 46 44 44 45 44
42 38 49 55 49 47 45 44 34 30 25 33 42 35 42 50 53 53 53 51 49 49 50 50 47 47 47 48 48 48 48 47 47 47 47 46 46 45 45 44 44 45 42 41
41 42 52 53 53 51 45 39 45 34 32 30 33 40 46 47 48 50 51 50 47 46 46 47 47 47 47 47 46 46 47 46 46 45 44 44 44 44 43 43 42 41 41 43
48 41 48 53 54 53 48 50 38 33 28 25 31 34 36 42 46 48 46 46 45 46 46 47 47 47 46 46 45 47 46 44 44 43 43 43 42 42 41 39 39 39 40 42
47 44 44 49 46 43 46 42 39 38 31 25 21 31 42 46 48 46 45 45 45 44 45 45 45 45 46 48 48 47 44 44 43 42 42 41 40 40 40 39 38 38 40 41
46 41 32 42 49 49 46 43 41 29 32 26 24 31 43 43 47 46 44 44 43 45 45 45 45 47 47 45 45 43 43 43 42 41 41 40 40 39 38 38 38 38 39 39
48 38 31 39 45 47 43 44 41 37 32 31 23 31 44 43 42 44 41 42 43 44 44 44 44 46 46 44 42 44 45 42 41 40 39 38 38 37 37 37 37 38 37 38
49 41 38 33 37 40 39 42 41 40 28 30 30 35 39 39 40 40 41 42 42 43 44 43 43 44 43 43 45 44 42 41 40 39 38 38 37 37 36 36 36 36 37 37
46 38 37 37 39 40 40 41 41 40 38 35 37 37 42 41 40 41 42 42 42 42 43 43 42 41 44 44 42 42 40 40 40 39 38 38 37 37 37 36 36 36 36 39
41 33 33 34 38 37 37 41 40 39 40 39 37 38 42 42 41 41 42 42 41 42 44 45 44 46 44 42 41 41 40 40 40 38 38 38 38 37 36 35 35 35 38 34
35 30 31 29 32 32 30 38 40 39 40 40 34 42 40 39 41 42 40 42 42 43 46 45 46 44 43 41 41 40 40 40 38 38 38 38 37 36 35 35 34 34 33 33
30 29 26 24 25 22 40 42 43 42 42 42 40 41 42 42 41 43 43 42 41 43 45 44 43 42 41 40 40 39 38 38 37 37 37 37 36 35 34 33 33 33 33 32
38 28 25 24 23 33 40 41 40 40 41 42 42 40 41 40 41 41 44 43 43 43 43 44 43 42 40 39 39 38 37 37 37 37 36 36 35 34 33 33 32 32 32 31
36 30 29 19 20 21 37 42 46 45 34 43 43 40 39 40 31 42 43 43 43 44 44 44 42 41 39 39 38 37 37 36 35 36 36 36 35 33 32 32 31 31 30 31
27 25 22 17 17 29 40 45 47 34 37 42 43 42 38 38 41 42 41 42 43 44 43 42 41 39 39 38 38 36 35 35 36 36 35 35 34 33 32 31 30 30 28 28
31 26 23 22 17 26 44 44 38 43 40 42 42 42 42 41 41 42 44 41 42 41 41 40 39 39 38 38 36 34 33 36 35 35 34 33 33 33 34 30 29 28 26 25
33 35 30 33 32 42 45 44 46 45 44 43 42 43 45 40 42 44 40 42 40 41 40 39 39 38 38 37 35 33 34 34 33 32 32 33 33 33 32 29 27 26 24 20
38 41 33 36 43 43 45 47 47 46 45 45 44 44 44 42 42 40 39 39 39 39 39 38 37 35 35 35 35 33 33 33 31 31 31 31 31 32 31 31 30 27 20 19
38 42 38 36 42 42 46 46 47 46 45 44 44 44 44 42 39 41 40 39 39 39 38 37 36 34 34 34 33 33 32 31 30 31 31 30 29 29 31 30 29 28 27 25
41 40 34 35 46 45 45 48 46 45 45 44 44 42 41 41 41 41 39 39 38 37 36 36 35 33 33 32 30 30 31 30 29 31 34 30 31 32 30 30 30 33 33 32

GFSCGP_sfc_temp_006.txt.gz
Temp
73 68 66 70 72 71 70 68 66 68 68 68 66 66 67 69 71 71 73 74 74 73 73 75 75 77 79 78 76 76 74 75 79 78 76 76 76 75 74 74 71 70 71 71
68 64 68 70 70 70 69 67 65 64 66 68 67 64 66 68 67 71 72 73 72 70 71 71 73 74 75 75 76 76 76 77 78 79 78 78 78 75 73 73 70 71 70 71
68 66 69 70 69 67 66 66 63 65 65 68 68 63 64 64 66 67 70 72 72 72 70 70 72 73 75 75 75 76 77 77 76 74 76 75 74 73 75 74 74 71 69 70
67 68 68 69 66 65 63 66 66 63 63 59 66 57 61 64 63 65 66 69 70 71 72 73 73 73 74 74 76 77 76 74 72 73 72 70 71 70 68 70 71 70 69 68
62 66 66 66 64 66 62 68 66 65 65 62 62 60 61 64 61 63 65 68 69 71 72 72 73 74 75 73 72 72 72 71 71 71 71 70 68 69 69 68 66 67 68 68
66 70 70 67 66 67 67 66 65 65 63 52 61 59 62 61 65 65 66 67 68 70 71 73 74 74 73 72 70 70 70 69 69 68 67 65 64 65 65 64 64 65 66 66
65 65 68 70 65 67 67 64 53 50 50 49 57 56 63 69 69 69 66 68 69 70 71 71 71 71 70 68 68 68 68 66 67 66 66 65 64 63 63 62 62 60 62 62
59 53 65 67 66 64 64 64 54 41 44 53 56 53 66 67 72 73 72 71 70 70 70 71 72 71 70 67 67 67 67 66 66 65 64 65 64 64 64 61 60 60 59 60
58 56 66 65 67 67 60 57 63 51 48 49 57 61 66 66 67 70 70 70 69 70 70 71 70 69 67 66 65 66 67 66 65 64 62 62 62 60 59 59 60 59 59 59
62 54 62 63 67 65 64 65 54 56 41 41 54 54 59 60 62 67 68 67 69 71 70 69 68 66 67 66 66 65 66 65 61 61 62 61 60 60 60 59 57 57 57 58
66 62 57 61 61 62 59 59 57 58 52 46 45 56 65 64 66 65 67 69 70 69 69 67 66 66 66 65 64 64 64 61 59 63 60 60 60 59 59 58 57 56 56 56
64 61 52 58 63 64 64 61 61 52 47 48 46 54 63 63 65 69 69 69 71 70 69 67 65 64 63 63 63 63 63 62 63 61 60 59 60 58 57 57 56 55 54 55
63 58 49 52 58 62 60 61 60 56 52 47 43 54 63 63 62 66 68 70 68 67 66 64 63 62 62 62 62 61 62 62 62 61 61 61 59 57 56 56 55 55 54 53
59 58 56 50 55 60 54 58 60 60 50 52 52 59 63 64 64 65 65 68 66 64 63 63 62 62 62 62 61 63 59 61 61 61 61 58 57 56 55 55 54 53 53 52
62 54 55 54 54 55 57 58 57 57 58 51 58 58 65 67 68 69 66 64 63 61 60 61 61 62 63 62 62 61 61 60 60 58 59 57 56 56 55 54 53 53 52 52
57 52 50 48 52 53 52 58 59 59 60 57 60 58 70 69 66 65 62 61 60 60 60 61 62 63 62 62 61 61 60 59 59 58 57 57 55 54 53 53 52 52 52 52
54 48 48 47 47 48 41 52 58 59 62 59 54 63 65 62 62 64 63 61 60 61 61 61 62 62 62 61 61 60 60 59 57 56 56 54 54 52 53 53 53 52 51 52
47 48 46 43 39 35 57 59 58 59 62 64 63 63 64 64 64 64 66 64 61 63 62 63 63 63 60 63 61 62 61 58 56 55 54 54 53 52 53 53 52 52 51 50
55 50 40 39 44 51 59 55 55 54 59 64 63 65 63 59 59 63 64 66 65 64 65 65 65 64 63 61 62 59 57 57 55 53 54 54 53 53 53 52 51 52 51 50
51 49 50 40 38 36 53 57 59 59 52 62 61 61 58 58 52 65 66 65 64 65 65 64 64 63 61 61 59 56 56 55 53 53 53 53 54 52 52 52 51 51 50 49
43 42 40 41 39 48 58 58 59 46 51 62 61 62 59 57 64 64 63 65 65 65 64 63 60 60 59 59 57 54 54 52 53 52 52 53 53 52 52 51 51 50 49 48
47 43 39 39 36 37 58 56 50 59 61 61 62 63 60 63 62 60 59 59 61 62 61 59 58 55 53 56 54 54 52 54 52 51 51 51 50 49 49 49 49 49 47 45
47 52 51 50 53 59 61 62 65 61 60 62 62 65 63 61 62 60 58 58 59 60 59 55 51 50 51 52 53 52 52 50 49 49 48 48 48 47 48 47 47 47 46 43
53 54 50 49 58 59 61 64 64 64 62 65 66 64 63 61 62 60 58 56 56 57 54 52 47 47 45 48 48 49 49 48 47 45 46 46 45 42 45 47 47 46 44 43
55 53 52 52 58 61 62 63 63 65 65 64 65 63 61 60 60 59 55 54 54 47 46 45 43 44 48 48 47 48 46 46 44 44 43 44 43 41 40 41 46 44 46 44
55 56 50 50 63 59 61 64 63 61 63 63 60 60 57 56 56 55 52 50 48 46 41 41 45 43 43 44 45 45 45 43 41 40 42 44 43 42 40 40 40 36 36 34

GFSCGP_sfc_temp_009.txt.gz
Temp
74 69 65 69 72 73 72 69 68 73 76 74 72 73 75 79 80 79 80 80 79 80 83 83 84 85 84 82 81 79 79 78 81 81 79 78 76 77 76 76 74 74 74 74
70 63 71 76 76 73 72 68 68 72 74 73 73 71 76 77 78 80 79 80 80 80 79 79 80 82 82 80 80 80 79 80 82 82 81 80 79 77 76 75 73 74 73 74
68 70 74 73 71 70 71 68 66 67 72 75 73 68 70 74 76 78 80 82 82 79 77 76 77 78 79 78 79 80 80 81 80 79 79 77 77 75 76 76 76 73 71 72
68 74 73 72 70 71 64 73 71 68 66 60 74 55 67 70 71 72 75 77 78 78 78 77 77 75 74 78 80 81 80 78 76 78 76 73 74 72 71 72 72 72 72 71
68 70 71 69 69 72 62 73 71 70 67 66 66 62 49 70 68 70 73 75 76 78 78 77 78 78 80 79 78 78 77 76 76 75 75 73 71 71 72 70 68 69 69 69
71 78 75 73 72 73 73 70 70 70 67 54 64 61 58 67 71 72 73 74 75 76 77 78 79 79 77 77 75 74 74 74 73 72 71 68 67 67 67 65 65 65 66 66
69 70 73 75 69 73 72 66 55 53 52 50 66 62 65 73 76 76 73 73 74 76 76 76 76 76 75 73 72 73 73 71 71 70 69 67 66 65 65 64 63 62 63 63
60 56 70 74 72 68 67 67 55 44 47 55 64 56 67 77 79 80 78 76 75 74 75 76 76 76 74 72 72 72 72 70 69 68 67 67 66 66 66 63 63 62 61 62
61 59 71 71 73 73 67 60 70 58 57 52 60 67 74 73 74 76 75 74 73 74 75 75 76 76 74 72 71 71 71 70 69 67 65 64 64 63 62 62 62 61 61 61
68 58 68 68 72 71 68 72 57 59 44 43 56 59 62 66 68 72 73 73 73 74 75 75 76 75 74 72 71 71 71 69 68 65 63 64 63 63 63 62 60 59 59 59
72 65 62 66 64 66 64 62 63 63 58 47 46 57 70 69 71 71 74 74 74 74 75 75 75 74 73 72 71 69 69 68 65 65 65 61 63 62 62 61 59 59 58 58
72 66 55 62 69 71 70 66 65 52 51 54 50 55 71 71 73 74 74 76 76 76 76 76 74 72 70 69 68 68 68 66 66 66 62 62 63 62 61 60 59 58 57 57
69 62 52 56 63 68 64 67 67 65 57 52 45 55 73 71 70 74 74 76 75 76 76 75 73 70 69 68 67 67 66 66 66 64 64 64 63 61 60 59 58 58 57 56
62 65 59 51 59 66 59 64 66 63 52 53 56 61 68 70 70 72 73 76 77 75 75 74 71 69 69 68 67 66 65 65 65 65 65 63 61 61 59 59 57 56 56 55
66 57 62 64 63 63 64 64 65 62 62 55 60 64 69 72 73 74 75 74 75 74 72 72 69 69 68 67 66 66 65 64 64 64 64 62 61 60 59 57 56 56 54 55
65 57 57 53 62 61 59 64 65 65 65 65 66 64 75 75 75 73 73 72 71 71 71 70 69 69 67 67 66 65 64 62 63 61 60 61 60 59 57 56 55 55 55 55
60 54 51 49 54 54 44 54 62 65 68 66 58 67 72 69 69 70 72 71 70 70 70 69 69 68 68 68 66 64 63 63 61 61 60 59 58 56 55 56 56 55 54 54
53 54 52 47 41 34 61 67 66 64 68 71 69 70 72 70 71 72 73 72 70 70 70 70 70 69 69 70 67 65 64 62 61 59 58 57 57 56 56 56 55 55 55 54
63 56 46 41 47 56 61 63 61 59 61 69 67 70 71 69 67 69 74 73 72 72 73 72 72 71 70 69 67 63 63 62 59 55 56 57 57 56 56 55 54 55 54 53
58 55 52 46 38 35 56 62 65 65 55 67 67 66 66 66 56 65 71 72 72 73 73 72 72 71 69 67 65 62 60 57 56 57 57 57 57 56 55 54 53 54 54 52
47 46 43 45 41 51 64 64 65 49 53 65 66 67 66 62 66 68 69 69 73 73 73 72 71 69 68 67 64 59 58 56 58 55 55 55 56 55 54 53 53 52 51 51
50 46 42 46 37 37 65 62 53 61 66 67 67 67 65 65 67 69 69 68 69 69 71 68 67 64 65 63 59 54 51 56 55 54 53 53 53 53 52 49 50 50 50 48
51 57 54 55 55 64 67 66 69 68 65 66 66 68 68 66 67 68 68 67 66 67 67 64 60 55 54 54 53 50 49 51 51 51 50 50 50 49 48 48 47 47 49 46
60 61 55 54 64 65 67 70 70 69 67 69 69 68 67 65 66 66 67 64 62 65 62 60 55 51 47 45 45 46 51 50 47 46 46 46 45 45 45 46 48 48 46 44
61 60 58 58 64 66 67 68 68 68 68 68 69 67 66 63 64 65 62 60 60 56 52 51 45 44 44 48 49 47 46 47 45 42 43 44 43 44 46 46 45 44 47 44
63 61 53 52 64 61 64 67 66 64 63 63 62 62 61 61 60 61 57 56 51 47 43 41 42 43 45 46 46 46 46 44 41 40 41 42 44 44 45 44 42 40 38 37

GFSCGP_sfc_temp_012.txt.gz
Temp
74 65 61 66 68 69 68 66 65 70 76 72 70 70 73 77 75 75 75 77 77 77 81 81 80 80 79 76 76 75 73 71 72 73 70 68 66 67 67 67 67 66 66 67
68 61 70 72 71 69 69 66 66 71 75 72 71 69 74 77 77 78 77 76 76 77 79 79 80 79 77 76 75 75 75 74 75 74 71 70 69 67 67 66 66 66 65 65
59 63 74 71 68 66 68 66 65 66 71 73 65 64 70 76 78 80 80 81 80 78 76 77 78 77 76 73 73 75 71 75 74 71 72 69 68 65 66 65 64 65 65 66
59 69 70 69 68 70 59 69 69 66 60 56 65 50 53 64 72 75 77 77 78 79 78 77 76 76 71 68 72 75 76 73 73 73 68 66 65 62 62 62 62 63 62 61
64 69 68 66 68 72 62 68 68 69 64 62 59 54 56 60 64 70 74 76 77 77 77 75 75 72 72 69 73 73 72 72 71 70 68 65 63 62 62 59 59 59 59 60
65 75 73 70 74 74 73 67 68 69 64 47 55 52 51 55 61 66 73 75 76 76 76 77 73 73 73 73 71 69 70 70 69 66 64 61 59 59 57 57 56 55 56 56
65 68 75 76 69 73 71 64 51 46 46 46 65 56 56 61 66 58 57 73 75 75 75 75 71 73 73 70 68 68 69 67 66 64 62 60 59 59 56 57 55 54 53 53
58 55 69 75 71 61 66 64 51 33 33 46 62 52 63 73 71 64 70 75 75 74 74 74 74 72 70 68 68 68 68 66 65 62 61 61 61 59 58 56 56 54 53 52
51 54 71 74 75 72 66 60 69 56 50 49 56 64 73 75 74 76 74 73 72 73 73 73 73 71 69 68 67 66 68 67 64 62 60 58 58 57 56 57 57 54 53 56
52 43 62 71 73 73 67 71 56 57 41 40 52 56 58 65 68 72 72 71 72 73 73 73 73 71 70 69 69 66 68 65 63 61 59 59 58 57 57 56 54 53 52 53
70 57 61 66 63 63 64 61 62 62 55 43 41 52 68 68 71 70 73 73 72 71 72 72 73 72 71 69 68 66 67 65 62 61 59 57 57 57 57 55 54 53 52 52
71 64 52 61 71 73 69 64 64 48 48 51 46 50 72 71 72 73 73 75 74 73 73 73 73 72 70 68 68 66 65 64 62 61 59 58 58 58 56 55 54 53 52 52
70 60 49 55 63 68 63 66 67 65 55 48 41 50 72 72 71 73 72 74 75 74 74 74 73 71 69 67 66 65 64 64 63 63 60 59 58 56 55 54 54 53 52 51
64 63 57 48 57 64 58 63 66 63 46 47 49 58 67 69 69 71 71 73 74 73 74 74 73 70 68 67 66 65 63 62 63 62 61 58 56 57 55 54 53 52 52 50
66 55 60 63 66 64 63 63 64 61 61 51 57 60 67 71 71 73 74 73 73 73 74 74 72 70 68 66 65 65 63 62 61 58 60 57 56 56 56 53 53 52 51 50
66 55 56 53 62 63 58 63 64 64 64 63 64 62 74 73 73 71 71 73 71 71 73 73 72 69 67 67 65 65 63 61 60 58 57 59 57 57 53 52 51 51 50 50
60 52 48 45 54 52 43 53 59 62 66 65 55 65 72 70 70 69 70 71 70 70 71 71 70 70 68 67 65 63 62 61 59 57 58 57 55 52 51 52 52 50 49 49
53 52 48 43 40 35 58 69 68 63 66 69 69 70 71 67 69 70 72 70 70 70 70 70 69 68 68 68 66 64 64 60 58 57 56 53 52 51 53 52 51 50 49 48
64 53 45 38 43 52 58 64 62 60 59 67 65 66 68 68 68 68 71 71 69 69 69 70 71 69 68 67 67 64 62 60 57 55 52 52 51 53 52 50 49 48 48 47
60 55 48 44 38 35 55 63 67 66 50 66 66 64 64 66 49 59 67 68 68 71 72 71 71 70 68 66 65 61 58 56 53 53 54 53 51 52 50 48 48 47 47 47
44 45 40 43 39 46 64 65 67 47 49 64 65 65 63 59 61 65 68 67 69 70 70 70 69 65 64 64 62 58 55 52 53 52 49 47 50 49 49 47 47 45 44 43
46 43 40 44 35 34 66 63 51 59 65 65 65 65 62 64 65 66 68 68 68 66 67 67 58 55 55 57 57 54 50 49 48 46 45 49 48 49 49 44 43 43 42 39
49 55 51 51 49 63 67 65 69 68 65 64 64 66 66 64 64 66 65 66 64 64 62 57 53 49 50 48 50 45 44 45 45 46 46 45 46 46 45 41 40 40 41 37
61 64 54 54 63 65 67 70 70 69 67 68 68 67 66 63 62 63 64 61 55 57 56 54 50 44 43 44 44 44 45 47 44 42 41 43 41 41 42 43 42 39 36 35
60 61 57 57 62 66 68 66 66 66 66 65 65 63 60 60 61 61 57 55 52 48 48 46 44 43 43 44 44 45 45 44 42 41 40 40 37 39 41 42 40 35 37 35
63 60 52 48 61 59 61 63 63 61 59 60 60 57 57 57 56 51 49 49 46 43 43 42 42 42 43 44 44 45 46 44 40 38 37 37 36 36 39 39 39 39 37 37

GFSCGP_sfc_temp_015.txt.gz
Temp
62 53 49 58 60 64 62 59 57 59 66 61 60 59 59 59 58 64 59 60 61 66 69 72 71 71 68 66 69 67 65 64 63 63 61 59 58 58 58 60 61 60 60 60
58 52 63 67 67 62 60 57 57 64 66 62 56 57 62 58 59 62 58 59 61 64 69 71 68 69 69 65 69 67 67 65 66 70 61 61 62 58 59 58 59 60 60 60
54 61 67 67 64 60 60 58 56 58 61 59 59 55 58 64 65 63 63 61 68 68 69 68 69 68 68 67 68 68 67 68 67 67 64 61 59 57 56 56 56 57 58 58
60 66 65 63 62 62 54 64 62 61 57 46 56 39 51 62 63 65 68 67 68 68 70 69 65 64 67 66 70 70 71 69 65 64 63 62 56 56 54 54 54 54 56 55
59 60 60 59 62 66 58 64 60 59 55 53 54 47 47 55 59 62 63 65 64 68 69 67 65 64 66 68 65 69 69 67 63 62 60 59 56 54 52 52 51 53 53 53
62 68 63 62 69 67 66 61 59 56 51 39 51 48 46 50 58 62 63 68 67 66 65 67 65 66 67 65 64 68 67 62 59 58 56 55 54 51 51 50 49 50 50 50
60 62 66 67 61 64 61 53 40 38 35 33 54 49 51 57 63 63 64 66 63 64 65 63 63 64 65 60 61 65 63 58 58 55 54 53 52 52 51 49 48 49 48 48
49 45 59 67 62 57 57 53 39 33 29 39 51 45 52 67 66 67 68 64 63 63 63 63 66 68 64 62 64 60 60 58 57 55 54 54 53 50 51 50 49 48 47 47
47 50 62 65 66 63 58 49 56 42 43 37 46 54 63 62 61 60 60 59 60 62 62 65 66 65 63 63 59 57 59 58 57 54 53 52 52 51 50 50 51 48 48 52
51 45 56 61 64 65 60 61 46 43 32 31 42 45 47 56 59 59 56 59 61 62 62 61 63 62 62 61 59 57 57 58 56 53 52 52 51 51 51 49 49 50 50 49
53 51 49 57 56 54 54 51 53 51 40 32 29 39 56 57 59 58 60 63 63 63 62 61 62 63 62 62 59 57 56 56 54 52 52 51 51 51 51 50 49 50 48 51
56 50 37 51 63 65 61 55 53 35 40 35 32 39 60 61 60 62 62 65 64 65 64 63 63 62 61 60 60 58 55 57 54 53 52 51 52 53 51 51 51 49 49 48
58 49 34 44 53 59 55 58 59 53 41 38 29 38 61 63 60 61 59 63 63 64 63 64 63 62 62 60 59 59 57 56 55 55 52 51 53 54 53 52 51 49 48 47
58 54 45 36 46 53 49 56 57 52 34 35 36 47 56 57 60 61 61 60 61 62 65 64 64 62 62 61 60 60 56 56 56 55 53 51 53 54 53 51 50 48 48 48
56 47 49 53 56 58 55 56 56 53 50 41 46 50 56 56 57 58 61 62 62 63 63 63 61 58 62 61 60 58 55 55 55 53 54 53 53 53 52 50 50 49 48 48
56 43 44 42 54 53 49 53 54 54 54 52 53 51 59 61 61 61 61 62 62 62 63 63 61 60 60 58 56 57 55 54 54 54 54 54 52 51 49 49 49 49 48 47
49 41 37 35 44 44 35 46 52 54 56 53 45 54 58 56 58 58 58 61 60 62 62 62 61 59 59 57 58 56 55 54 53 51 53 52 49 48 47 48 49 48 47 46
44 42 35 32 33 26 48 59 59 55 56 56 56 56 56 56 57 58 59 57 58 60 61 61 61 61 59 57 56 54 55 53 51 52 49 48 47 47 48 47 48 46 46 45
52 39 34 31 30 41 50 55 52 50 49 56 53 55 57 58 55 53 59 59 57 58 59 60 60 60 59 57 56 55 52 51 50 48 48 48 46 46 46 45 43 44 44 43
52 44 35 31 28 25 43 55 60 58 38 55 55 54 54 54 36 47 58 59 59 60 59 56 54 54 56 55 54 53 51 49 47 45 45 46 47 46 46 44 43 43 42 43
33 33 31 26 25 35 53 58 58 38 39 54 56 54 53 49 49 55 58 59 59 54 52 51 49 47 47 54 51 47 46 43 45 46 45 45 45 45 44 44 42 41 40 40
36 32 29 32 29 29 58 56 45 47 53 55 54 53 53 54 56 57 58 56 54 49 48 47 43 42 44 46 46 44 42 44 44 44 44 43 44 45 46 41 40 39 38 35
37 43 36 40 36 50 56 55 57 57 55 54 55 55 56 54 54 55 50 50 49 47 44 44 42 41 41 44 44 41 42 44 44 42 42 42 42 43 42 39 38 35 34 30
50 55 41 44 52 55 58 58 59 57 55 56 54 54 54 52 53 49 48 46 44 43 42 42 41 40 40 42 43 42 44 43 41 39 38 39 38 38 38 39 38 35 29 28
47 52 49 47 52 53 54 54 55 55 55 54 52 49 51 49 49 47 43 42 41 41 42 43 41 41 40 41 40 41 40 40 38 38 37 36 33 35 36 37 36 32 33 32
51 49 39 35 52 49 49 52 54 51 50 51 47 45 45 46 43 42 40 40 40 40 39 39 38 38 40 41 40 41 41 39 36 35 33 32 31 31 33 33 33 36 36 36

GFSCGP_sfc_temp_018.txt.gz
Temp
58 52 47 53 54 58 59 56 55 54 61 58 55 55 57 59 60 56 58 61 61 66 68 69 68 68 66 61 65 65 62 61 62 61 59 55 54 55 55 57 58 57 57 57
54 48 58 61 63 61 57 54 53 57 61 59 52 54 55 56 63 61 60 61 65 62 64 66 66 66 65 64 65 64 64 62 63 64 60 57 58 54 55 55 56 57 56 56
52 58 63 64 61 57 55 54 52 53 57 57 55 49 53 59 60 61 62 67 68 64 65 64 65 64 65 64 65 65 65 63 64 62 59 56 55 54 53 52 53 54 55 55
55 61 62 59 57 57 50 62 59 57 52 45 52 39 49 56 57 60 62 58 60 61 68 66 64 63 64 64 67 66 66 64 64 63 61 60 59 56 52 51 51 52 53 52
55 57 56 57 58 61 55 59 57 56 50 46 47 44 50 50 56 57 58 60 59 62 67 65 64 65 65 64 63 65 64 61 63 62 63 59 52 52 50 49 49 49 49 50
57 64 62 62 66 63 62 58 55 51 47 35 46 44 42 47 59 61 59 62 63 65 64 61 64 66 64 63 63 62 66 64 64 60 56 57 53 51 49 47 47 47 47 47
55 57 61 64 56 61 58 49 39 37 32 32 50 45 48 56 58 60 60 60 64 64 60 60 61 63 63 60 59 64 64 60 59 58 53 53 52 51 50 48 47 47 46 45
46 43 56 62 57 52 54 50 37 32 29 38 47 40 49 61 64 64 62 61 59 59 63 62 62 62 62 60 61 62 62 58 56 54 51 51 52 50 49 49 47 47 46 46
44 47 57 61 60 58 54 47 52 39 37 35 41 51 56 59 57 57 58 58 57 57 58 60 60 62 60 59 58 57 57 57 56 52 51 50 50 51 50 49 48 46 46 49
52 44 55 59 62 59 55 57 44 40 33 31 40 41 44 52 55 57 55 55 57 58 58 58 61 59 60 60 58 56 58 56 53 52 51 51 51 51 50 48 47 49 49 49
52 48 47 55 54 55 51 49 49 47 38 33 29 38 52 55 57 57 57 57 57 58 59 60 59 60 60 59 59 58 58 55 53 52 51 50 49 49 48 49 49 48 47 49
54 47 35 49 59 64 55 52 50 34 39 32 30 39 56 57 58 58 57 59 58 61 61 61 60 59 59 60 58 57 56 55 54 54 52 51 51 51 49 48 47 48 48 48
53 45 34 43 51 54 52 55 53 47 37 36 29 37 57 56 58 60 57 58 59 59 58 58 59 59 59 60 59 57 56 56 55 54 52 50 50 50 51 50 49 47 48 47
55 49 43 36 44 50 46 52 52 48 33 35 35 45 53 55 56 58 58 55 56 58 59 58 58 59 60 60 59 59 56 54 54 54 52 50 51 53 52 49 46 45 45 44
53 46 47 49 51 52 51 51 50 49 47 39 45 46 54 56 54 56 57 59 58 57 59 59 57 55 57 56 57 58 52 53 53 52 51 51 53 53 50 45 45 45 44 45
52 43 42 42 48 49 46 50 50 50 50 48 49 48 52 55 54 55 56 59 58 57 58 58 59 56 57 56 55 54 52 53 53 51 51 54 52 49 47 44 44 45 46 47
47 39 36 36 40 42 34 44 49 51 52 51 42 49 52 51 53 52 53 55 55 56 56 57 56 55 54 54 55 53 52 52 51 50 54 51 49 46 46 46 44 45 45 45
42 39 33 30 32 26 46 54 54 50 50 51 51 51 52 52 51 53 53 53 53 54 55 55 55 56 54 53 55 53 52 50 48 48 49 48 46 46 46 44 44 43 44 43
52 38 32 30 30 39 47 52 50 47 44 51 50 52 53 52 52 51 54 55 53 52 51 49 48 48 52 53 51 50 48 47 46 46 46 47 46 45 44 42 41 42 42 41
46 41 35 29 28 25 41 51 56 53 37 52 52 50 51 50 35 45 54 54 50 48 47 46 46 48 49 48 50 48 46 44 42 44 44 45 44 44 42 41 41 41 40 41
32 31 29 23 24 33 48 54 54 38 39 52 51 50 50 46 46 50 50 47 47 46 45 45 44 43 44 46 46 43 43 42 44 44 44 44 44 42 41 41 42 41 38 37
36 31 26 31 25 30 52 52 44 46 48 52 51 51 48 48 48 48 47 45 44 42 42 43 41 40 42 43 43 42 41 44 44 44 43 42 42 43 43 40 39 38 36 33
37 40 35 37 36 48 52 52 53 53 52 51 51 51 51 48 46 46 44 42 41 41 40 42 42 41 40 42 45 41 41 42 43 42 41 41 41 40 40 36 35 34 34 29
46 50 39 42 48 48 51 51 52 52 50 50 50 51 50 46 45 42 41 40 40 39 40 40 40 39 39 41 41 40 41 41 40 37 37 36 35 35 36 36 35 32 28 27
45 50 46 43 45 50 49 50 50 49 48 46 47 47 46 44 42 41 40 39 39 38 38 39 37 36 37 39 38 39 39 39 36 35 35 34 31 32 32 33 32 31 32 31
48 46 38 37 50 46 45 47 49 47 45 45 43 41 42 42 40 39 37 38 37 36 37 36 37 37 37 38 38 38 39 37 35 34 32 30 29 29 30 31 32 35 35 35

GFSCGP_sfc_temp_021.txt.gz
Temp
56 50 46 51 53 54 54 50 50 53 60 56 54 53 56 57 56 54 54 56 59 60 64 66 66 65 64 59 62 61 60 59 60 58 55 54 53 53 54 54 56 55 55 55
52 47 56 57 56 54 56 51 50 55 57 57 52 49 51 56 57 57 57 57 60 62 62 64 64 63 62 61 63 61 62 59 60 61 57 56 54 52 52 53 53 54 54 53
49 55 60 60 57 55 54 50 49 51 52 53 52 47 50 56 57 59 60 62 63 62 61 63 63 62 61 61 62 62 62 61 61 59 56 53 53 52 51 50 50 52 53 52
52 59 58 55 56 57 49 56 55 53 48 42 50 38 46 52 55 57 61 57 61 62 63 63 63 61 61 62 65 65 64 62 61 59 58 58 55 53 50 50 49 49 50 50
54 55 54 54 58 58 54 57 54 52 46 46 45 41 45 50 52 57 60 61 60 59 61 62 62 64 63 63 63 64 63 62 62 60 60 55 51 50 48 48 48 47 47 48
56 60 58 59 62 60 59 54 52 47 45 35 44 42 40 44 55 59 63 62 63 56 59 62 63 64 63 61 61 61 60 61 60 60 61 57 52 49 48 46 45 45 45 45
52 54 57 61 55 57 55 47 37 36 32 32 46 42 45 55 56 59 58 60 59 59 60 57 59 61 61 59 59 60 60 60 60 58 58 57 55 51 51 48 45 44 45 44
45 42 54 59 55 51 50 49 36 32 29 37 45 39 48 57 59 60 60 59 58 56 61 59 60 60 60 60 60 61 59 56 56 56 55 54 54 54 54 51 49 45 45 44
42 45 53 57 59 59 50 45 49 37 34 32 38 46 55 56 55 52 54 56 55 55 56 59 60 61 61 60 58 59 57 56 53 52 52 53 53 53 51 49 49 44 44 47
51 43 51 55 57 57 53 55 42 38 32 31 36 38 42 52 56 54 50 54 55 53 55 57 59 61 61 61 59 56 56 56 54 51 51 51 53 51 51 49 48 48 47 49
51 48 46 53 51 52 49 46 45 44 36 31 28 36 49 53 56 57 56 54 55 54 55 57 59 59 60 58 57 56 54 53 51 52 51 51 49 48 49 48 49 49 48 48
52 46 35 49 54 56 53 50 47 33 37 31 29 36 53 54 55 55 57 57 54 56 56 58 59 56 56 56 55 56 55 53 53 53 50 49 50 49 48 50 50 49 48 48
52 43 33 41 48 51 48 51 49 44 36 34 28 37 54 52 54 57 56 58 56 56 55 55 54 55 56 56 56 56 54 54 52 51 50 49 48 49 49 50 49 48 48 45
54 45 43 38 43 47 43 49 49 46 32 34 34 43 51 54 54 55 56 55 53 54 55 53 53 54 55 56 55 54 52 50 50 51 50 49 49 49 49 50 48 48 47 45
52 45 45 46 49 50 49 49 47 46 45 38 44 43 50 51 53 52 55 54 55 54 54 54 53 52 53 53 53 52 50 50 51 50 50 49 50 49 51 48 47 45 45 46
50 41 43 39 45 46 45 49 48 48 47 46 45 45 49 50 49 51 52 54 52 53 54 54 55 55 55 54 52 51 50 50 51 50 51 50 49 51 47 46 45 45 45 45
45 38 36 36 38 39 34 42 47 48 50 49 41 49 50 48 50 48 49 51 51 52 53 53 53 54 53 52 51 50 50 51 50 49 49 50 48 46 45 45 45 44 44 43
40 37 33 30 32 25 45 49 50 47 46 48 47 48 49 48 48 50 49 50 50 51 50 49 47 48 50 50 49 49 48 47 45 45 45 45 46 44 44 44 43 42 42 41
47 36 31 31 30 38 45 48 47 45 43 47 47 47 48 49 49 49 52 50 47 46 45 44 44 44 45 46 47 46 44 44 43 43 43 45 45 43 43 41 41 40 39 40
43 39 36 28 30 27 41 48 53 51 36 49 48 48 47 46 34 43 47 46 44 43 42 41 43 43 43 43 44 42 41 41 40 41 42 44 44 43 41 40 40 40 40 40
32 30 30 24 25 33 45 51 53 37 39 49 49 48 47 45 44 44 43 42 42 41 41 42 41 39 40 43 43 40 41 39 43 44 43 43 43 42 41 40 40 40 39 36
36 31 27 26 24 31 50 50 43 45 46 49 48 48 46 44 43 43 42 41 41 39 40 41 39 38 40 41 41 39 39 42 44 43 43 43 42 42 42 39 39 38 34 32
37 39 35 37 36 47 49 49 50 49 49 48 49 48 48 44 42 41 39 39 39 39 38 39 38 38 39 40 40 38 38 40 41 40 41 40 40 39 38 35 34 32 32 29
43 46 39 40 45 46 47 48 50 50 49 49 48 48 47 42 41 39 39 38 38 37 36 37 37 36 36 38 38 38 39 40 39 36 35 35 34 34 34 34 33 31 29 27
43 46 42 39 42 45 46 45 45 45 45 44 45 44 43 41 39 39 38 37 36 36 36 37 36 35 35 36 36 36 36 36 34 34 33 32 30 32 32 32 31 31 31 32
45 44 38 36 47 46 44 45 46 44 42 43 42 40 41 41 38 38 36 37 36 35 35 34 34 34 34 34 33 34 34 34 32 32 31 29 29 29 30 30 32 35 34 35

GFSCGP_sfc_temp_024.txt.gz
Temp
53 48 44 49 51 51 50 47 46 51 58 55 51 49 51 53 53 53 53 54 56 58 62 62 62 61 60 59 59 59 58 57 59 56 53 53 53 53 53 54 55 55 54 53
50 45 54 55 54 53 52 48 46 52 56 52 47 47 49 52 55 55 56 55 57 58 58 60 60 59 60 59 60 59 59 58 60 60 55 55 53 51 52 52 52 53 52 52
47 52 57 57 53 52 51 48 48 49 51 50 49 45 49 54 55 56 56 58 59 58 58 60 60 59 60 59 60 60 60 60 60 58 54 52 52 52 51 49 49 50 51 50
50 55 56 54 52 54 49 56 51 50 46 40 46 37 45 50 52 54 56 55 58 59 60 61 61 59 58 59 61 61 61 60 59 57 56 57 54 52 50 49 48 47 49 48
52 52 52 51 55 56 53 55 50 50 45 44 42 40 44 46 50 55 56 58 58 60 60 60 61 62 61 60 60 60 60 60 60 59 58 55 50 49 48 47 46 46 46 47
53 56 54 55 57 57 57 54 50 46 43 34 41 40 41 43 54 59 59 58 61 58 58 60 61 61 60 58 58 58 58 59 58 58 56 55 52 49 47 45 44 44 44 44
49 52 56 57 52 55 53 47 37 35 32 32 44 40 45 53 54 56 57 59 60 62 56 56 57 59 59 57 59 59 58 58 57 57 55 54 53 53 51 48 46 44 43 43
43 40 52 56 53 51 48 47 35 31 28 36 42 38 48 55 55 58 58 57 57 58 59 58 60 60 60 59 59 60 59 59 58 58 56 55 54 54 53 51 49 47 48 45
40 43 52 55 55 54 48 42 47 36 33 32 36 44 53 53 54 52 52 53 53 52 54 57 59 60 59 59 60 60 60 60 56 56 53 52 52 51 50 51 50 47 47 48
49 42 49 53 55 54 51 52 41 37 32 30 34 35 41 51 53 53 52 52 53 51 52 54 56 58 59 60 61 59 60 59 55 53 52 51 51 51 49 49 47 48 48 48
48 46 44 49 48 49 48 45 42 42 35 31 27 35 47 51 53 53 53 53 53 53 52 53 55 56 58 58 57 57 56 54 51 50 50 49 49 49 49 49 48 49 49 49
51 45 35 47 51 54 50 48 45 34 36 30 28 34 51 52 53 52 55 56 52 53 53 53 54 55 55 56 54 53 51 51 51 50 49 49 47 48 48 48 49 48 49 48
50 41 32 40 46 48 46 47 46 41 35 33 27 35 52 51 52 54 54 54 53 54 53 53 53 53 53 52 51 52 51 50 49 49 49 48 49 48 49 49 49 49 48 47
53 43 41 38 42 45 41 46 45 44 32 34 33 41 50 52 51 53 53 51 53 52 53 52 51 51 51 52 52 51 50 49 48 49 48 48 48 49 49 49 46 45 47 46
51 42 42 45 47 47 47 47 44 43 42 38 42 41 49 49 51 51 51 50 51 51 51 51 51 51 51 51 51 51 49 48 48 48 48 47 47 48 47 44 46 46 45 46
47 41 40 38 44 44 43 46 45 44 43 43 43 43 49 47 46 47 49 50 49 49 50 51 52 52 52 51 50 49 48 47 48 47 47 48 46 45 44 43 44 42 44 44
44 38 36 37 36 38 34 41 45 44 46 47 40 47 48 45 46 45 47 49 48 47 47 47 47 48 48 48 49 48 47 46 46 46 46 45 44 42 43 44 44 43 43 43
38 37 33 29 31 25 44 47 47 46 46 47 45 46 47 47 45 47 47 47 46 45 45 44 43 44 44 45 46 45 45 44 43 42 42 42 42 43 44 44 43 42 42 42
45 36 32 31 30 37 43 46 45 44 44 47 45 45 45 46 46 45 45 44 42 41 41 40 40 40 41 41 42 42 41 41 41 40 41 42 44 44 43 42 41 41 40 40
43 38 36 28 27 26 40 49 50 49 37 47 46 45 45 45 34 41 43 42 40 39 39 39 39 40 40 39 41 40 39 39 38 40 41 43 44 43 41 41 40 40 40 39
32 30 30 23 25 33 45 49 50 37 40 47 48 46 45 44 43 41 40 39 39 39 39 39 39 37 38 40 40 38 39 38 40 41 41 43 43 42 42 41 40 39 39 37
37 31 27 27 25 30 48 47 43 46 43 46 47 46 45 40 40 39 39 38 38 37 38 38 37 37 38 39 40 38 37 39 40 40 40 41 42 42 42 39 39 36 33 31
38 40 35 38 37 46 47 47 50 48 47 47 47 46 45 40 39 39 37 37 37 36 36 37 37 36 37 37 38 36 36 38 38 38 37 37 37 36 35 33 32 31 30 26
40 43 39 39 44 44 47 46 46 48 47 47 47 47 45 40 39 37 37 36 35 34 34 35 36 35 34 35 36 35 36 36 35 33 32 32 31 32 31 31 31 30 28 27
41 44 40 39 41 43 46 45 45 43 44 43 43 42 41 40 38 37 36 35 35 34 35 35 35 34 32 33 33 33 33 33 32 32 31 30 29 29 30 30 30 30 30 30
43 43 38 38 46 46 46 44 44 42 41 42 41 39 40 40 37 37 35 35 35 34 34 33 32 32 31 32 31 32 32 31 30 30 29 28 27 26 28 29 29 33 34 35

GFSCGP_sfc_temp_027.txt.gz
Temp
61 58 54 58 57 59 58 55 55 60 63 61 58 58 56 58 59 58 59 60 62 64 68 67 68 69 69 68 68 69 67 67 67 66 65 64 65 64 64 66 66 65 66 65
57 53 59 58 58 57 57 55 56 59 60 61 57 57 58 57 59 61 61 60 63 65 66 66 67 67 67 69 68 69 69 68 67 69 68 67 66 64 63 64 64 65 64 64
54 60 59 59 57 56 57 54 54 55 57 57 56 55 56 59 59 62 62 65 65 65 65 65 65 66 67 67 67 68 69 68 68 68 65 62 60 62 62 63 63 63 62 63
57 60 58 57 56 58 54 61 57 55 54 51 57 48 53 57 58 60 63 63 65 66 67 68 66 66 66 67 68 69 68 67 67 65 66 64 64 63 65 63 62 62 60 60
57 57 56 56 58 59 58 59 58 56 52 51 51 50 55 54 56 60 63 64 66 67 67 68 68 69 69 69 67 68 68 67 67 66 66 66 63 63 62 58 55 56 58 59
58 63 62 61 62 61 60 58 55 52 51 44 49 50 53 55 60 64 67 65 66 67 66 69 70 71 70 68 68 66 67 67 67 65 64 64 61 59 59 58 57 57 57 57
56 58 62 63 59 60 59 55 46 43 41 41 49 48 55 63 62 63 64 66 68 69 69 67 67 67 69 66 66 66 67 67 65 64 63 62 60 58 59 56 52 52 53 54
49 47 58 61 60 57 55 55 44 36 36 43 48 45 57 64 64 64 65 65 66 67 68 68 68 69 68 66 67 67 66 67 65 64 63 61 59 57 58 58 55 52 54 54
45 48 59 60 61 62 53 50 55 42 39 40 46 51 60 62 64 62 63 62 63 63 66 66 69 69 68 67 66 66 66 67 65 65 65 62 61 59 58 56 55 54 53 54
54 48 55 58 62 59 57 57 47 45 37 35 43 44 51 59 61 62 62 64 65 64 63 62 65 66 67 68 68 66 67 67 67 66 65 62 59 58 57 55 54 54 53 54
55 53 50 56 55 55 53 51 48 50 45 40 38 45 57 58 61 63 64 62 62 64 65 64 64 66 67 67 67 65 66 68 67 64 62 59 57 57 57 55 55 52 50 50
56 50 43 51 57 60 57 54 51 44 42 40 39 44 60 61 60 60 63 62 64 64 65 65 64 64 64 65 65 65 65 65 62 58 60 59 57 56 55 54 51 50 48 51
54 47 42 47 53 55 54 54 51 47 44 40 39 46 59 59 60 62 61 63 63 63 64 63 62 62 62 62 61 62 61 62 59 58 58 57 56 55 55 54 52 51 51 49
56 48 47 43 48 52 48 50 50 51 42 44 44 50 59 61 60 64 62 61 62 62 60 61 61 60 61 61 62 61 60 59 58 58 58 56 55 55 55 55 53 50 51 49
56 47 46 49 52 51 52 51 49 49 50 46 51 47 57 60 61 60 59 58 58 57 58 59 60 60 60 60 60 60 59 57 57 56 57 56 55 55 55 52 48 48 47 48
51 46 46 46 48 49 48 51 51 51 49 49 50 49 58 59 58 56 55 56 55 55 55 55 56 57 57 58 59 58 58 56 55 55 55 55 54 53 50 48 46 46 47 46
48 42 42 42 43 46 39 45 49 50 52 53 47 55 56 55 54 54 54 54 53 52 52 51 51 51 53 54 55 56 55 54 53 53 53 52 52 50 47 46 46 44 46 46
44 43 41 37 38 33 51 53 55 53 53 54 53 55 56 55 52 53 56 54 51 50 49 48 50 50 50 51 51 52 53 52 51 50 49 50 50 49 48 47 44 44 44 43
49 42 36 36 38 43 49 51 51 50 54 56 55 54 53 52 53 49 49 50 48 47 46 46 47 47 48 48 49 49 48 49 48 47 47 48 49 48 47 46 43 43 43 42
44 44 44 35 36 35 48 55 55 57 46 55 54 51 50 51 48 52 47 46 45 45 46 46 46 47 47 47 48 47 46 46 45 46 47 48 48 47 45 46 44 45 46 45
39 38 38 33 37 42 51 54 56 44 50 54 54 53 52 52 53 50 46 44 45 45 44 45 46 44 45 47 47 45 45 44 46 48 48 48 49 48 48 45 43 41 40 39
41 39 37 35 35 38 52 51 48 55 53 53 54 54 51 46 44 45 44 43 43 43 44 45 43 43 45 47 47 44 42 46 46 46 45 44 44 42 42 43 43 43 43 41
41 45 43 45 46 53 53 56 56 55 55 52 54 53 49 45 44 44 42 42 42 43 43 44 43 42 42 44 45 42 41 44 44 43 41 41 41 41 41 41 41 41 41 39
45 47 46 47 51 51 52 54 55 55 55 54 57 54 50 46 44 42 41 41 41 42 42 42 41 39 38 40 40 40 41 42 40 38 38 38 38 39 40 41 40 39 38 37
46 47 44 45 49 49 52 53 55 51 51 50 51 51 48 45 42 42 40 40 41 41 41 41 39 37 36 38 37 38 38 39 37 37 36 36 36 36 37 37 36 35 37 35
47 46 43 44 54 54 54 54 50 49 49 49 46 44 46 45 42 42 40 40 40 38 39 37 36 34 34 35 34 35 36 37 36 34 34 32 33 33 33 33 33 32 31 31

GFSCGP_sfc_temp_030.txt.gz
Temp
71 66 63 68 70 68 66 64 63 69 71 68 68 69 69 70 68 67 70 72 73 73 76 76 76 77 76 77 76 76 75 75 76 77 75 75 74 76 76 77 77 75 76 74
65 62 70 70 68 66 65 63 63 68 69 67 69 68 70 70 69 70 72 71 73 76 76 75 76 76 75 76 76 76 77 77 77 79 78 78 77 77 76 75 74 75 74 75
64 67 69 67 66 63 65 64 62 62 65 68 67 65 67 71 72 72 73 75 76 77 76 76 75 75 76 75 76 77 78 78 77 78 79 77 76 74 72 70 70 73 73 74
67 71 66 66 65 67 61 70 65 63 61 57 65 55 64 69 68 68 71 72 75 77 79 79 77 77 76 77 78 78 79 79 78 78 78 73 74 72 71 68 72 74 71 72
64 66 65 64 66 69 64 68 66 65 63 60 59 58 64 65 66 71 73 74 76 79 80 79 80 81 80 79 77 78 79 79 79 77 76 75 74 76 77 71 72 70 68 67
69 72 70 70 69 70 69 65 64 64 63 50 59 59 63 66 70 74 77 77 78 79 80 81 82 83 82 81 79 77 77 78 78 77 75 75 74 74 71 70 67 65 61 61
65 66 71 70 66 67 68 63 52 50 49 48 58 55 62 71 74 74 75 79 81 80 80 80 81 82 81 80 78 77 77 77 77 76 74 74 73 71 67 66 63 61 63 59
57 53 66 71 68 64 64 64 52 40 43 52 56 52 64 74 75 77 77 77 78 79 80 81 82 82 82 80 79 78 77 76 78 75 74 73 71 69 67 65 60 58 57 55
57 57 68 68 70 69 61 58 66 54 50 50 57 61 70 74 74 74 75 75 76 78 80 81 82 83 81 80 78 77 76 75 77 76 74 72 71 69 66 63 61 60 59 61
63 55 65 65 68 67 66 68 54 56 42 41 52 54 60 66 69 72 74 75 77 77 76 77 78 80 81 81 81 78 78 75 76 76 74 73 71 69 63 62 59 57 59 61
69 62 57 62 61 63 60 60 60 60 56 47 44 54 69 68 72 72 74 74 76 77 77 76 75 78 79 79 79 77 76 74 76 78 75 72 70 64 61 61 60 61 63 61
68 62 54 59 65 68 69 64 63 52 50 52 49 53 73 73 74 72 74 73 75 76 76 76 76 75 76 76 77 77 77 77 77 77 75 72 66 64 63 63 62 61 61 54
65 58 50 54 59 63 61 64 65 61 57 52 46 54 70 72 73 75 73 76 74 74 76 75 74 74 75 74 74 74 74 75 76 73 70 69 67 64 62 60 58 56 52 49
63 62 56 49 56 63 56 61 63 61 52 54 54 59 67 71 72 76 75 74 74 72 70 75 74 73 73 73 72 72 71 72 71 70 69 68 65 65 64 61 58 58 56 52
65 56 60 62 64 64 62 62 62 59 60 55 59 61 66 71 73 74 71 69 68 68 69 70 72 72 72 70 70 70 69 67 67 67 67 66 65 65 64 62 62 61 57 54
64 56 59 55 62 60 58 63 64 63 63 63 62 62 72 74 73 69 67 67 66 65 66 67 68 68 68 68 70 67 67 65 66 65 64 63 62 62 60 58 55 52 50 50
58 56 52 49 55 54 45 55 61 62 65 63 58 66 73 70 69 69 67 67 65 63 64 63 63 64 65 65 66 65 64 64 63 62 61 60 60 58 57 56 54 50 48 47
54 54 53 48 42 36 60 64 67 64 66 68 67 69 71 71 69 67 69 66 63 62 61 61 62 62 63 64 63 63 63 62 60 59 58 58 58 56 55 54 51 46 47 46
60 55 48 42 46 55 57 59 60 59 61 70 68 70 70 65 63 58 64 66 62 61 60 60 61 61 61 61 61 61 60 59 58 56 56 57 56 56 55 53 51 51 51 50
54 55 52 44 43 39 59 68 70 67 54 72 70 69 65 62 55 64 59 58 57 59 59 58 59 59 59 59 60 58 56 56 54 54 55 56 56 54 53 52 50 51 51 49
45 47 44 46 45 54 65 66 67 51 56 70 72 70 65 60 67 63 58 56 58 57 56 57 58 56 57 58 58 55 54 52 54 55 54 53 53 51 50 49 45 43 41 41
47 45 43 49 42 41 65 61 58 67 67 69 68 69 64 62 58 56 56 54 54 54 55 56 54 54 56 58 56 53 51 53 53 52 50 49 47 47 49 49 50 51 50 48
45 54 52 55 56 67 65 70 71 70 70 66 68 68 66 57 56 55 54 54 54 55 55 55 53 52 53 54 54 50 51 52 51 50 49 49 49 49 49 49 48 49 48 46
54 56 54 53 65 64 65 70 67 68 68 69 70 67 62 58 56 55 54 53 53 55 54 54 51 49 47 50 50 50 50 50 49 47 46 47 45 46 46 48 47 46 43 41
58 54 57 58 63 58 63 67 69 66 65 65 68 65 63 59 56 55 53 52 53 53 52 52 49 47 46 47 47 48 48 49 46 44 43 43 43 43 44 44 41 39 40 35
58 58 52 54 67 65 71 71 68 64 62 64 64 61 62 60 56 55 52 53 52 50 49 48 46 45 44 44 44 44 45 46 44 42 41 38 40 41 42 41 41 31 31 30

GFSCGP_sfc_temp_033.txt.gz
Temp
75 68 65 70 73 73 71 68 67 70 72 72 71 67 74 75 75 72 75 72 76 76 79 76 77 77 77 76 75 75 75 75 76 74 76 77 76 78 78 77 78 79 79 78
71 63 72 77 75 71 69 67 67 71 74 71 72 71 69 75 75 76 76 74 76 77 78 77 76 78 77 76 77 77 77 77 78 79 80 79 79 80 80 76 78 79 78 78
66 71 76 71 70 68 68 66 65 66 71 74 72 69 72 77 78 78 79 80 80 79 78 78 77 77 77 77 77 79 79 79 79 81 82 81 81 80 79 77 75 76 76 77
70 76 71 69 68 70 63 73 69 67 65 57 72 55 67 74 74 75 77 78 79 80 82 81 79 78 78 78 79 80 81 81 81 81 81 78 77 76 78 77 77 75 74 74
66 70 68 66 69 73 67 72 69 69 66 65 64 60 61 73 70 74 77 78 79 81 82 82 81 81 81 80 79 79 81 82 82 81 79 79 76 78 79 78 74 72 75 74
71 79 75 73 75 74 75 69 68 68 64 53 60 61 57 67 72 75 79 80 81 81 83 85 86 85 84 83 81 80 80 82 82 81 79 78 76 76 78 76 73 73 72 71
67 70 76 77 70 73 71 64 53 49 50 49 65 60 64 68 77 77 78 82 83 83 83 85 85 85 85 83 81 81 81 80 81 80 79 77 77 77 76 74 72 71 68 63
58 54 69 74 70 67 66 65 54 37 40 51 62 54 65 78 81 81 82 83 85 85 84 85 86 86 86 85 83 81 81 80 81 79 79 79 74 74 74 71 70 66 61 55
59 60 75 75 75 74 66 61 70 58 58 52 58 65 73 77 77 79 79 80 82 84 85 85 86 87 86 86 85 82 82 82 82 81 76 76 74 72 74 72 71 65 60 60
66 58 71 72 74 74 69 73 58 59 42 41 55 58 61 68 72 76 77 79 81 83 83 84 86 86 88 88 88 85 83 83 83 80 76 76 75 74 71 69 64 61 61 61
68 64 64 68 64 64 64 62 64 63 59 46 46 55 71 71 74 74 77 79 81 81 82 81 82 85 86 87 86 85 83 82 83 81 79 75 72 69 69 66 63 62 61 62
69 65 56 61 71 75 70 66 65 54 52 56 53 56 75 75 77 77 77 79 81 82 82 82 82 81 82 83 83 84 83 81 82 81 79 73 67 64 63 62 63 61 61 63
68 61 50 57 65 69 64 67 67 63 63 49 45 54 76 76 76 78 78 80 81 80 82 82 81 79 79 79 80 81 80 80 81 81 80 76 65 63 61 60 60 59 59 57
64 63 57 51 58 65 59 64 67 64 54 54 56 61 69 73 74 77 79 80 81 81 80 82 81 79 79 78 77 77 77 79 79 78 75 73 69 64 63 62 61 58 55 52
66 56 59 63 67 67 65 64 65 62 63 54 60 63 70 74 76 77 78 78 77 77 77 78 79 78 77 75 76 76 73 73 74 73 72 69 68 68 66 63 61 59 56 55
66 56 60 58 65 66 62 66 67 66 66 65 66 65 77 79 79 77 77 75 75 75 75 75 76 76 74 74 74 72 70 70 71 70 68 68 67 67 65 63 61 59 58 56
60 56 53 49 61 61 51 61 64 66 69 67 60 68 76 75 76 76 77 75 74 72 72 72 72 71 71 72 71 68 69 70 68 67 66 65 64 62 60 60 58 57 55 54
58 56 54 49 48 39 59 71 70 66 69 72 72 73 76 77 78 78 78 76 72 70 69 69 69 68 69 70 69 68 68 67 65 64 63 63 61 60 59 58 56 53 52 51
60 55 49 45 46 55 61 67 65 64 64 74 72 75 76 78 73 70 75 75 71 69 69 69 69 68 68 68 68 67 65 64 63 61 61 61 60 59 58 56 55 55 54 53
60 58 51 49 43 40 58 70 75 74 57 74 75 74 74 73 58 69 71 71 68 68 67 66 67 67 66 66 66 64 62 61 59 59 59 60 60 58 55 52 51 50 51 50
45 46 44 47 46 54 68 74 77 53 58 75 76 75 74 70 70 72 68 65 67 67 66 65 66 65 64 65 64 61 59 58 59 59 59 57 56 53 52 51 50 49 49 49
45 45 44 49 45 42 72 70 61 68 75 75 76 76 73 74 69 66 64 64 64 63 63 64 62 61 63 64 62 59 57 58 57 56 54 53 52 52 53 53 53 54 52 50
43 53 52 57 56 67 72 71 76 78 75 75 75 77 75 68 65 64 63 63 62 62 63 63 61 59 61 61 61 57 56 57 55 54 53 53 53 54 54 52 51 52 50 47
56 62 55 58 64 69 72 75 78 79 76 78 77 77 74 67 65 63 63 62 62 63 62 62 59 57 56 58 58 56 56 56 54 52 51 51 51 50 51 52 50 48 44 42
58 59 57 59 65 68 70 72 75 76 75 74 75 75 73 68 65 64 62 61 63 62 61 59 56 54 53 55 54 55 55 54 51 49 49 47 47 48 47 46 43 42 37 35
62 58 53 54 65 66 69 74 77 74 72 71 72 71 71 69 65 65 62 62 62 59 58 57 54 53 52 52 51 52 53 52 49 46 45 43 43 44 46 45 39 31 32 31

GFSCGP_sfc_temp_039.txt.gz
Temp
61 52 47 52 58 61 61 58 55 58 67 63 56 51 56 61 58 61 61 62 62 61 60 61 59 60 59 58 58 58 58 59 61 61 60 59 60 62 62 62 67 65 67 66
56 51 60 65 64 63 62 57 55 62 68 63 55 51 56 58 58 62 63 62 62 62 61 61 61 59 59 59 60 60 61 61 63 64 65 63 62 61 63 63 64 65 65 65
53 58 67 64 62 61 61 57 56 57 62 67 60 48 52 59 61 65 66 67 65 62 60 62 61 59 60 60 61 63 64 65 66 66 67 64 61 61 61 60 63 65 64 66
58 66 64 63 61 63 55 65 64 61 54 46 61 41 50 55 60 63 65 65 63 62 64 64 63 59 60 61 63 64 65 65 67 67 66 64 64 64 65 61 63 63 64 63
56 58 59 59 63 65 59 65 61 59 52 49 54 46 52 59 56 61 63 65 65 65 64 65 64 64 63 64 64 65 66 66 68 67 67 65 65 65 66 63 64 65 63 65
61 69 65 63 68 67 68 63 60 57 51 38 50 48 47 54 59 64 66 67 68 67 67 67 68 68 66 65 66 66 67 67 67 67 67 67 64 63 63 62 63 63 64 63
58 60 67 69 60 65 61 54 41 37 35 34 53 48 50 59 63 67 67 68 68 70 69 67 67 68 67 67 66 67 68 68 69 69 69 68 65 62 64 63 60 61 59 58
47 44 61 67 63 58 58 56 39 33 30 40 50 44 52 64 64 69 73 72 71 68 71 70 69 69 70 69 69 68 68 69 70 70 69 70 67 66 67 61 59 59 61 61
47 49 65 68 68 66 58 50 59 46 46 38 41 52 60 65 65 65 66 66 64 65 67 71 72 71 71 71 70 70 70 71 71 70 70 69 69 66 62 62 62 62 62 57
55 47 61 66 68 66 61 63 48 46 33 31 41 44 49 59 62 66 65 64 66 67 69 71 72 73 73 73 73 71 72 72 72 72 70 69 67 67 63 63 59 59 56 57
60 52 52 62 58 57 55 54 54 53 46 35 31 40 57 59 62 63 65 66 66 67 67 67 67 69 74 77 75 71 71 67 68 67 69 68 65 65 66 62 60 58 56 56
61 52 45 52 63 67 61 58 55 39 41 45 38 43 62 62 62 67 68 68 66 67 68 69 68 68 68 69 74 72 71 68 64 65 67 65 61 61 58 59 57 56 55 56
59 52 42 47 56 61 58 59 60 55 47 42 34 41 60 62 63 68 65 67 67 68 67 67 68 68 68 68 67 70 69 67 66 66 68 61 61 62 59 58 57 56 55 55
54 55 49 41 48 54 50 56 58 55 39 41 40 48 56 61 60 62 62 61 62 67 69 66 65 67 67 67 66 65 65 65 64 63 61 58 58 57 57 56 55 53 53 52
52 47 53 55 57 58 57 57 56 54 54 46 49 51 57 61 65 68 65 68 69 69 68 66 65 64 64 64 63 63 62 62 63 61 59 57 57 57 55 54 53 51 51 50
52 45 49 46 57 58 54 56 57 57 56 56 57 54 64 68 65 61 65 66 66 67 68 68 67 66 66 64 61 62 61 60 61 59 58 58 58 57 56 54 52 51 49 49
43 41 45 41 48 49 40 51 56 57 61 59 49 56 67 65 65 66 65 67 66 67 66 66 66 65 64 62 61 59 59 59 59 58 58 56 55 53 51 51 52 50 48 44
38 37 41 34 40 32 51 61 61 57 60 62 61 61 62 65 67 67 71 67 64 64 64 63 61 59 60 60 60 58 59 57 56 56 55 54 53 51 49 47 45 43 42 41
45 37 33 34 39 44 50 57 56 54 54 63 61 62 64 65 65 59 65 64 62 62 60 58 58 59 57 58 57 58 56 55 55 53 53 53 51 49 47 45 43 42 42 41
42 40 34 34 34 31 46 58 64 61 44 62 62 61 60 60 47 53 61 62 59 60 61 60 59 58 57 55 56 55 53 53 52 52 52 52 51 49 46 43 42 42 42 43
32 32 30 31 30 38 55 62 64 44 44 62 63 63 61 56 56 59 59 58 61 61 59 58 58 56 54 55 55 51 50 49 52 53 51 49 48 46 45 43 42 41 40 40
34 32 32 34 31 31 53 58 52 53 59 64 62 61 61 59 59 60 60 59 59 58 58 58 55 54 53 54 53 49 48 50 50 49 47 47 46 47 46 43 42 42 40 37
34 39 36 40 37 49 54 54 55 59 59 62 61 68 64 58 58 58 58 58 58 58 57 56 54 52 52 53 53 49 47 49 48 47 46 45 46 46 45 41 38 38 36 32
47 50 41 43 48 50 54 56 58 57 59 63 67 67 61 58 58 56 56 56 56 56 54 55 53 51 49 52 51 49 49 49 47 44 43 42 41 40 40 40 37 33 29 28
46 48 45 44 50 53 57 56 56 56 59 60 62 62 63 58 58 58 56 55 55 55 53 54 51 49 47 50 49 50 49 47 44 42 41 39 37 34 32 31 30 28 29 29
50 45 40 37 51 51 55 58 58 57 56 59 61 59 61 60 57 57 54 54 55 51 52 50 48 47 46 47 46 46 47 45 41 39 36 32 31 32 32 30 29 32 31 32

GFSCGP_sfc_temp_045.txt.gz
Temp
55 48 44 48 51 51 50 47 45 50 57 54 52 51 52 52 53 51 51 50 52 52 54 54 59 57 57 57 58 58 58 58 59 59 60 59 57 59 60 60 62 60 61 61
50 47 52 55 54 51 49 47 46 52 58 55 51 49 51 51 54 55 54 52 52 53 52 53 53 54 53 54 56 58 59 59 60 62 63 62 57 58 59 60 58 60 61 61
47 52 58 55 52 50 49 46 48 49 54 51 49 47 48 54 54 56 57 57 56 55 52 52 53 52 51 51 53 56 59 59 61 61 57 57 58 57 56 55 55 58 59 60
49 59 55 52 52 52 45 54 54 52 47 42 52 38 47 50 51 55 57 57 56 57 56 54 52 52 50 51 53 56 57 58 59 57 56 55 58 57 59 57 57 58 59 60
48 51 51 51 53 55 50 56 53 52 47 44 45 40 46 49 49 53 56 57 58 58 58 55 54 54 53 53 53 55 56 57 58 58 58 56 55 57 58 56 56 57 57 59
54 58 56 54 58 57 59 54 52 48 45 36 45 42 40 45 53 55 58 59 59 59 58 59 58 56 54 54 54 55 56 57 58 58 58 57 56 56 57 58 57 58 57 57
50 53 56 58 51 55 53 46 35 34 32 34 47 41 44 53 56 58 58 60 60 60 58 58 57 56 55 54 54 55 56 56 58 58 59 59 58 57 59 59 58 57 56 56
42 38 52 57 54 50 49 48 35 30 29 36 44 38 47 57 60 61 62 64 61 60 59 58 59 58 57 56 56 56 57 57 59 59 59 60 60 60 60 60 59 57 58 59
39 41 55 57 59 56 49 43 51 40 37 33 38 44 53 57 58 58 59 59 58 59 59 59 60 60 59 58 58 57 58 59 60 60 61 61 61 60 60 59 59 58 59 60
47 40 52 56 58 56 54 55 42 38 32 29 36 38 42 51 57 58 57 58 59 62 61 61 61 61 61 61 60 59 60 61 61 61 61 62 61 61 61 60 58 57 58 57
50 45 45 52 48 48 48 45 46 46 38 35 33 36 49 54 56 57 58 60 59 59 62 62 63 63 63 63 62 60 60 61 61 61 61 62 62 62 61 61 62 58 56 56
48 43 37 46 56 57 51 49 48 40 38 36 33 43 56 55 56 56 58 61 60 60 61 65 64 64 63 63 63 62 61 61 62 62 62 61 62 62 61 60 60 58 58 58
51 40 32 39 48 50 47 50 51 47 41 41 34 41 58 58 56 58 58 59 61 59 60 61 61 62 64 64 64 64 62 62 63 63 62 61 61 61 61 62 61 60 61 59
49 42 39 33 35 42 40 47 52 50 37 37 42 45 52 55 55 57 58 59 60 61 60 59 61 63 65 65 65 65 65 64 64 64 62 61 61 61 62 61 62 61 59 59
47 37 38 39 43 46 44 45 48 48 49 42 45 45 52 55 57 58 60 59 61 60 60 59 58 59 60 61 63 65 66 65 64 63 62 62 62 63 61 60 60 59 59 58
46 37 37 34 45 44 41 45 46 49 50 46 48 46 56 59 57 57 58 60 60 62 62 63 61 60 59 61 62 61 61 59 62 63 61 61 57 57 57 56 55 53 52 51
40 36 34 29 36 40 34 40 46 50 54 51 45 52 58 56 57 58 61 60 61 62 62 62 60 63 62 61 58 57 55 57 59 59 58 57 56 56 54 53 52 50 48 47
35 34 33 29 32 26 44 48 51 49 54 57 56 56 59 58 59 60 63 63 61 62 61 61 63 59 59 56 54 53 54 56 57 57 56 55 54 51 50 50 48 46 46 45
41 35 31 26 26 36 41 48 46 40 41 54 55 58 60 62 57 55 60 61 63 63 65 65 63 58 55 54 53 53 52 53 54 52 52 52 51 50 49 46 45 43 43 42
41 39 30 31 23 22 43 49 54 50 37 51 52 53 57 58 47 52 61 61 59 59 58 56 53 53 54 52 53 51 50 50 50 50 50 50 50 48 45 42 41 39 39 39
32 32 31 31 29 31 44 49 52 34 36 49 52 50 51 49 59 61 59 58 56 55 53 52 53 53 53 53 53 49 49 47 47 47 47 47 47 45 42 40 40 38 38 36
31 30 29 33 29 27 50 47 41 44 50 50 53 51 49 51 52 55 56 55 53 52 51 52 50 49 50 52 52 48 45 46 46 46 44 43 43 43 41 39 38 38 36 34
30 35 30 34 34 47 50 49 52 52 50 52 51 54 52 51 53 54 52 51 52 51 50 51 49 47 47 49 50 45 44 45 44 43 42 41 41 40 39 38 36 34 34 32
39 43 37 37 46 48 51 53 53 55 53 55 55 53 52 52 52 50 50 49 49 48 48 49 49 46 44 46 46 45 45 45 43 41 38 37 35 34 34 34 34 32 32 32
40 43 40 40 46 49 52 52 54 54 56 54 56 54 54 53 51 49 50 49 49 49 49 48 46 44 42 44 43 44 44 43 38 36 34 32 31 31 31 31 32 30 30 31
39 38 34 33 43 41 47 52 54 53 54 56 54 55 56 56 55 52 48 49 49 46 46 44 43 42 41 41 40 40 41 40 36 32 31 30 30 29 30 29 29 32 32 32

GFSCGP_sfc_temp_048.txt.gz
Temp
52 46 44 46 49 49 48 44 42 46 52 51 50 49 55 50 51 50 50 50 50 51 53 58 58 57 57 57 57 58 57 58 58 57 57 58 57 58 59 60 61 61 62 61
48 46 51 54 51 50 47 44 43 49 53 51 47 49 49 49 50 53 52 50 50 51 52 54 57 56 56 56 57 57 58 57 58 58 58 60 59 59 60 60 59 60 61 61
46 49 55 53 49 47 46 43 44 46 49 50 46 47 48 52 51 53 54 54 53 52 50 53 55 55 55 55 57 58 59 59 59 60 60 58 58 58 57 57 58 59 60 60
48 55 51 49 49 50 42 50 51 48 44 38 47 36 47 49 50 51 54 53 54 53 54 52 54 54 54 55 57 58 59 59 60 62 60 60 61 61 62 59 58 59 60 58
46 49 49 47 49 53 48 52 50 49 43 40 42 38 45 48 49 51 53 55 56 55 55 53 52 53 55 53 53 53 57 58 60 59 59 57 57 60 58 55 55 55 55 58
51 55 53 54 55 55 56 51 48 45 41 32 42 40 40 44 52 54 56 56 57 56 56 56 55 53 51 51 51 52 54 55 57 57 56 56 57 56 55 54 55 55 54 54
47 50 54 57 50 51 50 44 34 32 30 31 43 38 45 52 54 57 58 57 57 57 56 55 53 52 51 50 50 51 53 54 56 56 56 56 57 56 57 57 57 56 54 54
39 36 49 55 52 48 46 44 33 30 28 34 41 36 46 55 58 58 59 59 57 55 58 57 55 54 53 52 51 52 53 54 56 56 56 57 57 56 56 56 56 54 54 54
39 41 53 55 56 56 47 40 49 38 35 31 36 43 52 55 55 56 58 58 56 54 56 57 58 56 55 54 53 53 54 55 55 56 56 57 57 57 56 55 53 53 54 55
46 39 50 54 55 53 51 52 39 36 31 29 34 35 40 48 54 57 56 57 57 55 56 57 57 58 57 57 56 55 56 56 57 57 57 57 57 57 57 54 54 55 55 56
48 43 43 50 47 46 46 43 43 43 36 31 29 35 47 53 54 55 58 58 56 55 56 57 58 59 60 59 57 56 56 57 56 57 57 57 57 57 56 57 58 57 57 57
46 40 34 43 53 54 48 45 45 35 36 34 30 39 54 53 55 54 56 59 58 57 58 58 59 59 58 59 59 57 57 57 58 58 57 57 58 59 58 59 60 60 60 58
47 40 31 37 44 46 42 46 46 44 39 35 29 36 56 54 54 57 56 58 59 58 57 56 57 58 59 59 59 60 59 58 59 59 58 58 58 58 58 59 60 61 58 59
49 41 37 32 37 40 37 42 44 42 32 35 39 41 50 55 54 56 57 57 59 58 58 55 55 58 60 60 60 60 60 60 60 59 59 58 58 59 60 60 60 60 59 58
46 36 38 42 43 42 42 42 43 40 40 35 41 43 49 53 56 58 58 58 58 60 59 57 56 57 59 58 60 61 61 60 60 60 59 59 59 60 60 60 60 60 58 58
44 34 36 33 42 42 39 42 43 44 44 42 44 45 53 57 55 54 57 57 58 59 60 60 59 57 57 59 59 61 61 60 60 60 59 60 60 60 59 60 59 59 59 59
38 36 33 30 36 38 31 38 43 44 46 45 38 46 55 55 55 55 57 57 57 59 60 60 60 60 59 58 59 59 61 58 59 59 60 59 59 59 59 60 59 57 56 53
36 33 30 27 30 24 39 45 47 44 46 46 46 48 52 56 60 60 58 58 58 59 60 60 59 58 59 58 55 54 55 56 57 57 56 55 56 57 57 54 53 49 49 50
40 32 26 23 26 33 39 44 44 42 45 48 48 49 50 53 54 56 58 59 60 60 60 62 64 61 59 55 53 54 54 54 54 54 55 55 55 51 50 49 48 46 47 46
38 37 33 30 22 19 35 45 49 46 34 45 46 46 48 49 40 54 60 59 59 58 57 56 55 53 54 52 53 53 53 55 53 53 52 51 51 49 48 45 43 42 42 40
32 32 31 31 28 31 41 46 48 32 35 47 48 47 47 44 48 54 57 57 59 59 58 54 52 52 52 51 53 50 51 51 49 49 49 49 48 46 43 42 41 40 38 35
30 27 29 32 28 25 45 45 39 44 48 47 48 48 47 50 51 52 52 52 52 52 49 49 50 48 48 51 51 48 45 46 47 47 45 44 43 43 42 41 40 38 36 33
29 33 30 33 33 42 46 47 50 50 47 49 48 51 52 50 51 52 50 49 47 47 46 47 46 44 45 47 48 43 42 44 45 44 42 41 40 40 40 38 37 35 34 32
36 40 34 35 41 44 46 49 50 52 50 53 54 55 54 51 51 51 48 47 46 45 44 46 46 44 43 45 44 44 45 44 43 39 37 36 36 35 34 33 35 34 32 31
37 39 37 38 42 43 48 47 47 49 52 54 54 55 53 53 52 50 48 47 46 44 44 45 42 41 40 42 42 44 43 41 37 35 33 33 32 31 30 30 31 32 32 34
36 35 32 31 38 39 40 45 44 46 44 47 52 52 52 49 49 49 44 44 44 42 42 40 39 38 38 38 38 39 39 38 35 32 32 31 31 31 31 30 28 31 32 31

GFSCGP_sfc_temp_051.txt.gz
Temp
57 53 49 53 57 56 55 52 52 55 60 58 57 58 64 61 57 58 60 60 59 58 62 62 62 61 61 61 59 59 59 58 59 58 58 58 58 61 62 67 68 68 70 69
52 48 56 57 56 55 54 52 52 56 57 57 59 59 64 59 59 59 61 61 61 60 58 60 60 60 59 60 61 58 59 59 59 59 59 61 61 61 64 64 64 68 68 68
50 53 57 56 53 51 52 51 50 52 55 58 56 56 61 62 59 60 61 64 64 62 57 57 58 59 60 58 59 60 59 59 60 60 57 57 59 60 62 62 61 65 66 70
52 58 54 53 52 54 47 54 54 52 51 48 57 45 56 62 61 60 62 61 63 62 61 59 59 59 60 61 62 62 62 60 61 60 58 58 61 61 63 64 62 61 65 66
49 50 52 50 53 56 53 55 54 54 51 49 50 48 54 57 59 64 67 63 63 63 62 60 60 61 61 62 61 61 63 63 62 61 60 59 62 64 64 64 60 61 65 66
54 58 57 57 56 58 59 56 53 51 49 41 49 50 51 58 62 65 68 68 65 64 63 63 63 62 61 61 58 60 62 62 64 63 63 61 62 64 64 62 61 64 65 64
50 52 58 59 53 56 56 51 41 39 39 40 48 46 53 61 64 65 68 71 67 64 63 63 60 59 58 56 55 57 60 61 63 63 62 63 63 63 64 64 63 64 62 62
43 40 53 58 55 51 51 51 43 35 35 43 46 43 54 63 68 66 67 68 67 65 64 64 62 61 58 56 55 56 58 60 62 62 62 63 64 64 64 65 66 64 63 64
42 44 55 57 58 59 50 46 55 44 42 41 46 51 59 64 65 65 66 67 70 68 65 65 64 62 61 59 58 57 59 61 62 62 63 63 63 63 63 64 63 63 64 64
49 43 53 56 59 58 56 57 45 44 36 34 41 44 50 57 62 67 65 68 70 68 65 65 64 63 63 62 62 60 61 61 62 62 63 63 62 63 63 63 61 62 63 63
53 48 46 55 52 50 51 50 50 49 44 39 36 43 55 60 62 64 67 68 68 69 67 65 65 65 64 64 63 60 61 61 61 62 62 62 62 62 62 61 61 62 62 62
50 45 40 46 55 56 54 51 50 42 41 40 39 44 60 59 61 62 66 66 67 68 70 68 66 65 64 63 63 62 61 62 62 62 62 60 61 61 61 60 62 62 62 61
49 42 37 41 47 50 45 47 47 46 43 40 37 43 61 61 62 64 63 68 68 68 70 67 65 64 65 65 63 63 62 62 63 63 62 61 60 60 60 61 62 63 63 63
50 45 40 36 39 44 41 45 47 46 39 40 42 46 55 58 58 62 66 67 68 68 67 68 65 65 66 66 65 64 63 63 63 63 62 61 61 61 62 62 63 63 64 64
48 41 43 46 46 45 44 45 46 43 45 40 46 47 53 57 60 62 66 66 66 67 68 66 65 66 66 65 65 66 66 64 64 63 63 62 62 63 64 63 64 63 63 64
45 38 40 37 44 44 41 44 46 46 47 47 47 46 58 61 62 59 61 64 64 66 68 68 65 66 63 64 65 66 66 65 64 64 62 64 64 63 63 64 63 64 64 64
39 38 36 34 38 39 35 41 44 47 51 50 44 53 56 55 58 60 62 63 64 65 67 67 67 66 65 65 64 66 66 66 64 64 64 64 64 63 63 64 64 64 64 64
38 37 33 31 34 26 44 49 49 47 50 53 52 53 55 56 58 59 62 63 64 66 66 67 68 68 68 67 67 66 69 66 64 64 64 64 64 63 64 63 62 62 61 59
43 38 33 30 31 38 43 48 48 44 47 51 49 52 54 56 55 57 62 62 62 62 65 68 70 69 69 67 66 64 64 64 64 63 63 63 63 63 62 60 53 50 49 47
40 41 36 32 28 25 40 48 53 52 40 53 52 53 53 53 45 54 61 60 58 60 62 63 67 65 65 68 63 63 62 61 61 62 62 61 61 55 52 49 46 44 43 41
33 33 32 32 30 36 46 50 52 38 43 53 53 55 52 50 53 56 57 57 60 59 60 62 62 62 63 61 61 60 60 59 55 54 54 53 53 49 46 43 43 41 38 36
34 33 32 34 29 27 49 49 43 50 53 54 55 55 53 54 54 56 57 57 57 55 55 58 59 56 54 57 57 56 52 50 50 48 46 45 45 45 43 41 39 38 36 33
34 39 36 38 39 47 50 50 54 53 51 53 53 56 55 54 54 54 55 55 53 53 52 52 52 50 51 53 52 46 46 48 46 44 43 43 43 41 41 38 36 35 35 33
40 43 39 39 46 48 51 52 48 49 49 51 53 55 56 53 52 50 53 52 50 51 50 50 49 47 44 48 50 48 47 46 43 40 38 38 37 36 36 37 36 35 33 32
43 42 40 41 46 46 50 46 44 46 48 48 49 51 44 45 45 46 48 45 45 46 45 45 43 41 41 42 43 44 44 43 39 37 36 35 35 33 32 32 33 33 35 37
43 41 38 39 39 38 41 47 44 43 42 44 43 43 41 40 40 41 37 39 37 39 41 40 39 38 37 38 38 39 41 41 39 37 37 36 35 35 34 31 29 31 32 31

GFSCGP_sfc_temp_054.txt.gz
Temp
65 60 56 63 66 67 66 63 63 68 70 66 67 69 74 76 75 72 74 74 73 73 75 74 70 66 66 65 62 60 59 60 60 59 60 60 59 60 61 64 69 71 72 73
59 54 65 68 68 64 63 60 62 67 67 66 68 68 75 75 75 76 75 75 74 74 73 71 70 69 63 67 63 61 60 61 61 60 60 61 61 62 64 65 68 71 71 74
56 61 67 63 61 59 61 59 60 61 64 68 66 64 70 76 74 75 76 78 78 75 73 71 69 69 68 67 64 61 61 60 61 60 61 60 59 59 60 63 69 71 73 76
58 65 60 60 59 62 56 65 62 61 59 55 66 53 68 72 74 73 76 75 76 77 76 74 71 70 70 70 69 65 62 61 60 60 60 58 57 58 61 63 70 73 73 73
55 56 58 57 60 65 60 65 62 62 59 59 60 56 64 71 68 74 78 78 77 78 77 75 73 73 73 72 70 67 64 63 61 61 61 59 59 61 62 63 64 68 71 73
61 65 63 63 65 65 66 61 61 60 58 47 57 57 60 67 70 74 79 81 80 78 78 77 76 75 74 73 71 68 65 63 62 61 62 60 61 63 64 61 61 61 63 68
57 57 62 63 60 64 63 56 48 46 46 45 60 56 60 70 74 76 77 81 79 79 77 76 75 74 73 71 70 69 66 63 63 62 63 64 64 65 67 65 65 65 62 62
47 44 56 62 60 57 57 58 50 39 42 50 57 51 61 73 76 78 80 80 79 78 77 77 77 75 74 72 70 68 69 69 67 64 64 68 69 70 69 70 71 71 70 71
47 48 61 62 62 63 57 52 62 52 51 49 55 60 68 73 74 76 78 79 80 81 79 78 78 76 75 73 70 66 69 71 71 69 68 67 69 70 71 72 72 72 73 74
55 46 58 60 64 64 61 65 50 52 40 39 51 54 58 64 69 74 76 77 80 83 81 80 79 77 76 75 72 67 69 71 73 72 71 71 70 71 72 72 71 72 72 72
58 52 51 58 55 55 56 55 56 58 54 45 44 53 67 67 67 68 74 77 80 80 81 80 79 78 77 76 74 70 69 71 72 71 71 70 71 71 71 71 71 71 71 71
57 52 47 52 59 63 63 58 58 49 47 51 49 54 70 67 68 71 72 75 78 80 81 81 79 78 76 75 75 74 71 72 72 72 70 69 70 70 69 69 70 70 70 70
54 51 43 47 53 58 55 56 57 54 53 48 43 52 68 69 68 72 73 76 78 80 81 80 79 77 76 75 74 75 73 72 73 73 71 69 68 69 69 69 69 70 69 70
53 51 47 44 48 54 47 51 53 53 46 49 50 54 60 64 66 70 72 75 78 78 79 81 80 79 78 77 75 75 74 73 74 73 71 69 69 69 69 69 69 69 70 69
52 42 48 50 50 51 50 51 52 50 51 46 52 53 60 64 66 69 71 72 74 76 77 79 79 81 80 78 76 76 76 74 73 72 72 70 70 70 70 69 69 69 69 69
52 45 47 44 50 49 46 51 53 53 53 53 55 55 67 68 70 68 69 70 70 73 76 78 80 80 78 77 77 77 76 74 73 71 71 72 71 70 69 70 69 69 68 69
45 45 43 40 45 46 40 48 52 54 59 57 51 60 65 63 64 65 66 67 67 69 71 74 76 78 78 77 74 74 76 77 74 72 72 72 72 70 69 70 70 69 69 69
43 43 43 40 39 30 51 56 55 53 57 60 59 60 61 62 65 66 68 67 64 65 66 69 73 75 80 81 79 78 80 77 75 72 72 72 71 70 71 70 69 69 69 68
49 45 38 35 38 45 49 54 53 51 53 58 58 60 62 63 64 65 68 67 65 65 66 68 72 74 76 78 79 74 78 79 76 73 73 74 72 70 70 69 68 68 66 63
47 47 41 37 32 29 48 54 58 58 45 59 59 58 59 61 53 60 66 66 66 68 68 67 67 70 73 76 78 75 72 74 74 74 74 74 72 71 70 69 65 55 51 43
36 38 34 36 34 42 54 58 58 42 45 58 59 60 59 56 60 63 64 65 67 65 65 65 64 65 70 73 72 72 72 70 73 73 71 71 71 67 60 54 48 43 39 37
35 36 35 39 32 30 57 54 47 52 58 58 60 60 59 61 61 62 62 62 63 62 62 63 60 61 63 65 67 69 69 61 61 58 55 52 50 48 47 43 41 41 38 35
38 46 43 45 44 54 57 56 58 57 55 56 56 58 60 61 60 58 58 58 59 60 59 57 54 53 51 55 61 61 52 52 50 47 45 43 43 42 42 42 40 37 36 34
50 54 46 47 53 55 58 59 55 55 54 55 56 56 57 55 58 57 57 53 52 49 52 48 45 43 41 43 45 47 47 47 43 40 39 39 38 38 39 38 38 36 34 33
51 52 48 49 54 57 58 54 52 52 53 53 54 53 52 50 53 50 50 46 44 38 38 41 39 38 38 39 40 41 42 41 38 37 36 35 34 33 31 31 33 33 34 35
54 49 45 44 49 48 49 53 49 49 49 50 48 49 49 47 46 46 43 41 36 34 33 34 34 33 33 34 36 38 40 40 37 34 34 33 32 32 31 30 29 31 31 31

GFSCGP_sfc_temp_057.txt.gz
Temp
67 59 56 62 67 69 68 68 67 72 77 72 71 72 77 81 82 80 80 81 81 80 83 81 77 76 75 71 65 64 62 62 62 60 59 58 58 59 60 63 70 70 72 73
58 55 64 68 70 68 66 64 65 71 74 70 70 71 77 80 81 82 81 81 81 81 81 79 76 74 73 70 66 62 62 61 62 62 63 62 60 60 61 62 66 72 73 73
56 63 66 65 66 65 65 62 64 64 71 71 69 67 72 79 82 82 83 84 85 82 80 78 76 73 71 71 66 62 62 62 64 63 65 63 63 60 59 60 63 68 71 73
55 67 62 62 63 66 59 69 67 65 64 57 72 55 69 75 77 79 80 82 83 84 83 81 77 75 72 72 70 65 62 63 65 63 61 61 60 59 61 62 64 72 71 71
55 60 60 58 63 67 62 70 68 65 62 61 62 58 66 75 73 77 81 82 83 84 84 82 79 78 77 75 71 69 62 62 63 64 62 61 62 64 63 62 62 69 70 65
60 68 65 59 65 69 70 65 65 64 62 50 59 60 62 70 74 77 82 84 85 84 85 84 83 81 78 77 74 68 65 61 62 63 63 62 61 60 61 60 60 68 69 69
57 58 66 65 58 67 66 60 50 47 48 46 63 59 62 74 77 78 79 83 85 86 84 83 82 80 79 76 74 70 67 64 61 61 61 63 65 61 63 64 63 62 63 65
48 44 59 65 59 58 61 60 50 40 43 51 64 54 64 77 79 80 83 84 84 84 84 84 83 81 79 77 75 73 70 69 64 62 62 65 67 66 68 66 68 67 64 66
48 51 65 66 65 63 59 54 64 54 55 50 59 64 73 75 76 78 80 82 83 84 84 83 84 83 80 78 75 74 74 73 70 64 63 63 64 65 68 69 70 70 70 71
56 47 62 63 65 65 61 67 53 55 41 39 53 56 58 67 71 75 77 80 82 85 86 85 85 84 82 81 79 75 76 75 74 71 67 65 65 66 70 70 71 71 71 72
59 54 53 59 56 55 56 55 58 59 55 44 43 53 71 68 69 70 75 80 80 81 82 85 86 86 84 83 80 76 75 76 76 74 72 69 69 68 68 70 72 73 73 73
57 53 47 51 62 66 63 58 57 49 47 54 51 52 72 71 71 72 74 78 81 82 84 85 85 84 84 82 81 78 75 75 76 77 75 72 72 72 70 70 72 73 73 74
53 50 42 48 56 61 57 60 62 60 58 46 44 51 72 73 71 72 73 77 80 81 84 85 85 83 82 82 81 80 76 75 77 77 76 74 73 73 72 72 73 74 73 73
52 50 48 43 50 58 53 57 60 58 49 50 51 56 65 66 68 71 73 76 77 79 81 83 84 85 84 82 81 81 80 78 77 78 76 74 73 73 73 73 73 73 73 73
48 44 49 54 55 55 56 55 56 54 56 50 55 57 64 67 69 72 74 73 73 76 76 77 79 83 85 84 83 82 81 81 79 78 77 75 73 74 73 73 73 73 72 73
51 40 45 45 53 52 50 55 57 58 58 57 59 58 70 72 72 70 71 71 70 71 71 73 74 77 79 82 85 83 82 81 80 77 77 78 76 74 73 73 72 72 71 72
48 44 39 35 48 49 42 51 54 56 60 59 53 62 68 66 67 68 69 69 69 69 69 69 71 73 75 78 81 82 84 82 80 79 78 77 77 75 73 73 73 72 71 72
46 47 46 39 42 28 52 61 61 58 61 64 63 64 65 65 68 69 71 70 67 68 68 69 71 71 73 75 78 80 84 83 81 79 78 78 77 75 75 73 73 71 71 70
52 47 41 37 39 48 53 57 56 54 56 63 62 62 64 66 66 68 70 69 68 69 69 69 70 70 70 71 75 78 81 82 83 80 79 78 77 76 75 73 72 71 71 70
51 50 42 41 34 33 50 60 62 62 48 63 62 61 61 63 54 63 68 69 69 71 70 68 68 68 68 68 70 72 77 80 78 82 81 80 79 77 74 73 71 71 69 63
40 41 36 38 37 45 58 61 62 43 47 60 61 61 61 58 61 66 68 67 69 69 68 66 64 61 59 58 59 62 69 72 79 80 81 79 78 76 75 74 72 56 48 41
40 36 36 39 35 33 61 59 49 52 59 60 60 60 58 62 65 66 65 65 65 65 64 63 59 55 51 48 48 51 60 66 67 69 69 61 60 58 55 50 46 44 40 36
38 46 43 46 45 57 62 58 59 59 57 58 58 60 60 60 62 63 63 64 61 60 58 57 54 48 44 41 42 42 46 51 53 54 50 46 45 45 44 42 39 37 37 34
52 51 48 44 55 54 59 60 60 59 58 59 60 59 59 57 58 59 58 57 55 54 51 50 47 44 37 36 37 38 42 44 42 40 39 39 37 37 38 38 38 36 34 34
53 53 51 50 55 58 61 58 56 57 58 57 58 57 56 54 54 54 54 50 47 44 42 43 39 39 34 34 34 35 38 39 36 35 34 33 33 32 30 31 32 32 33 33
56 52 47 46 52 53 55 57 56 53 53 54 52 52 52 52 50 50 46 41 38 36 34 34 32 34 31 31 32 33 35 35 34 32 32 31 30 30 30 29 28 31 31 31